Preview of NWS' New Version of Forecast
This preview is not operational and should not be used for support decisions.
Latest weather observations around

INDEPENDENCE (KIDP)

Using International System of Units (Switch to English Units)
Date/ Time (CDT) Wind (kph) Vis. (km) Weather Sky Cond. Temp (°C) Rel. Humidity Wind Chill (°C) Heat Index (°C) Pressure Precip. (cm)
Air Dwpt 6 hour Altimeter (hPa) Sea level (hPa) 1 hr 3 hr 6 hr
Max Min
Sep 21 16:15 S 24 16.09 Cloudy SCT033 OVC043 28 23     74%   31 1014.22        
Sep 21 15:55 S 20 16.09 Cloudy SCT027 BKN034 OVC041 28 23     76%   30 1014.56        
Sep 21 15:35 S 22 16.09 Mostly Cloudy SCT027 BKN035 BKN041 28 23     74%   31 1014.9        
Sep 21 15:15 S 22 16.09 Cloudy SCT027 BKN032 OVC039 27 23     76%   30 1015.2        
Sep 21 14:55 S 31 16.09 Cloudy and Windy SCT022 BKN027 OVC075 28 23     76%   31 1015.24        
Sep 21 14:35 S 22 16.09 Cloudy BKN022 OVC034 27 23     78%   30 1015.6        
Sep 21 14:15 S 24 11.27 Cloudy BKN020 OVC028 26 23     82%   28 1015.6        
Sep 21 13:55 S 28 6.44 Haze OVC020 26 23     82%   28 1015.58        
Sep 21 13:35 S 30 8.05 Fog/Mist BKN018 OVC023 26 23     86%   26 1015.6        
Sep 21 13:15 SSE 26 11.27 Cloudy BKN016 OVC034 25 23     90%   25 1015.9        
Sep 21 12:55 S 19 8.05   BKN016 BKN024 OVC034 24 23     92%   25 1016.59        
Sep 21 12:35 S 21 6.44 Fog/Mist SCT009 BKN015 OVC020 23 22     94%   24 1016.6        
Sep 21 12:15 SSE 32 11.27 Fog/Mist SCT007 OVC018 23 22     95%   24 1016.6        
Sep 21 11:55 S 19 6.44   BKN007 OVC012 23 22     96%   24 1016.59        
Sep 21 11:35 S 17 11.27 Fog/Mist SCT009 OVC014 23 22     96%   24 1016.9        
Sep 21 11:15 S 22 11.27 Light Rain SCT008 BKN016 OVC027 23 22     96%   24 1016.93        
Sep 21 10:55 S 28 8.05 Thunderstorms and Light Rain and Fog/Mist SCT006 BKN010 OVC026 23 22     96%   23 1016.93   0    
Sep 21 10:35 S 17 3.22 Thunderstorms and Heavy Rain and Fog/Mist OVC006 23 22     96%   24 1016.93   0    
Sep 21 10:15 S 24 3.22 Rain and Fog/Mist OVC008 23 22     95%   24 1017.3   0    
Sep 21 09:55 S 24 4.83 Thunderstorms and Rain and Fog/Mist BKN015 BKN021 OVC028 24 22     90%   24 1016.59        
Sep 21 09:35 S 32 16.09 Cloudy and Windy BKN015 BKN019 OVC024 24 22     86%   25 1016.9        
Sep 21 09:15 S 30 11.27 Fog/Mist BKN014 OVC022 25 22     86%   25 1016.9        
Sep 21 08:55 S 28 6.44   SCT014 SCT019 OVC027 25 22     87%   25 1016.59        
Sep 21 08:35 S 22 6.44 Fog/Mist SCT012 BKN025 OVC055 24 22     91%   25 1016.6        
Sep 21 08:15 S 24 8.05 Fog/Mist SCT012 SCT022 BKN110 24 22     91%   25 1016.3        
Sep 21 07:55 S 26 8.05 Fog/Mist SCT013 SCT041 BKN110 24 22     90%   25 1016.26        
Sep 21 07:35 S 28 4.83 Fog/Mist BKN013 BKN033 OVC042 24 22     91%   25 1016.26        
Sep 21 07:15 S 26 4.83 Fog/Mist OVC013 24 22     91%   25 1016.26        
Sep 21 06:55 S 20 4.83 Fog/Mist OVC013 24 22     90%   25 1015.92        
Sep 21 06:35 S 19 4.83 Fog/Mist OVC013 24 22     89%   25 1015.92        
Sep 21 06:15 S 24 5.63 Fog/Mist SCT013 BKN020 OVC030 24 22     90%   25 1015.92        
Sep 21 05:55 S 20 5.63 Fog/Mist SCT027 24 22     90%   25 1015.58        
Sep 21 05:35 S 28 16.09 Partly Cloudy SCT014 24 22     90%   24 1015.24        
Sep 21 05:15 S 24 11.27 Partly Cloudy SCT014 24 22     90%   24 1015.24        
Sep 21 04:55 S 24 11.27 Mostly Cloudy BKN016 BKN065 24 22     90%   24 1014.9        
Sep 21 04:35 S 20 11.27 Fog/Mist OVC016 24 22     91%   24 1014.9        
Sep 21 04:15 S 18 8.05 Fog/Mist OVC016 23 22     93%   24 1014.9        
Sep 21 03:55 S 26 6.44 Fog/Mist OVC016 24 22     91%   24 1014.9        
Sep 21 03:35 S 17 8.05 Fog/Mist OVC016 24 22     88%   25 1014.9        
Sep 21 03:15 S 26 16.09 Cloudy OVC014 24 22     88%   25 1014.9        
Sep 21 02:55 S 22 11.27 Cloudy OVC014 24 22     89%   25 1014.9        
Sep 21 02:35 S 20 8.05 Fog/Mist OVC014 24 22     89%   25 1015.24        
Sep 21 02:15 S 21 8.05 Fog/Mist OVC012 24 22     89%   24 1015.2        
Sep 21 01:55 S 26 11.27 Fog/Mist OVC012 24 22     90%   24 1014.9        
Sep 21 01:35 S 22 11.27 Cloudy OVC012 24 22     90%   24 1014.9        
Sep 21 01:15 S 28 11.27 Cloudy OVC012 24 22     90%   24 1014.9        
Sep 21 00:55 S 24 16.09 Cloudy OVC012 23 22     90%   24 1014.9        
Sep 21 00:35 SSE 24 16.09 Cloudy OVC012 23 22     91%   24 1015.24        
Sep 21 00:15 SSE 21 16.09 Cloudy OVC012 23 22     92%   24 1015.2        
Sep 20 23:55 SSE 24 16.09 Cloudy BKN012 OVC021 23 21     92%   23 1015.24        
Sep 20 23:35 SSE 24 16.09 Partly Cloudy SCT012 23 21     92%   23 1015.2        
Sep 20 23:15 SSE 24 16.09 Partly Cloudy SCT012 23 21     92%   23 1015.6        
Sep 20 22:55 SSE 26 16.09 Mostly Cloudy BKN012 BKN023 23 21     91%   23 1015.24        
Sep 20 22:35 SSE 22 16.09 Cloudy OVC012 23 21     91%   24 1015.2        
Sep 20 22:15 SSE 22 16.09 Cloudy OVC012 23 22     90%   24 1015.24        
Sep 20 21:55 S 20 16.09 Cloudy OVC012 23 22     90%   24 1015.24        
Sep 20 21:35 SSE 24 16.09 Cloudy OVC014 24 22     89%   24 1015.24        
Sep 20 21:15 SSE 20 16.09 Cloudy BKN014 BKN020 OVC025 24 22     89%   24 1014.9        
Sep 20 20:55 SSE 15 16.09 Cloudy SCT014 BKN025 OVC030 24 22     90%   24 1014.6        
Sep 20 20:35 SSE 15 16.09 Cloudy SCT014 BKN020 OVC026 24 22     90%   24 1014.6        
Sep 20 20:15 SSE 11 16.09 Cloudy BKN015 OVC019 24 22     89%   25 1014.2        
Sep 20 19:55 SSE 15 16.09 Clear   24 22     89%   25 1014.22        
Sep 20 19:35 SSE 15 16.09 Clear   24 22     89%   25 1013.88        
Sep 20 19:15 SSE 13 16.09 Clear   24 22     89%   25 1014.22        
Sep 20 18:55 SSE 17 16.09 Clear   24 22     87%   25 1014.2       0
Sep 20 18:35 S 15 16.09 Mostly Cloudy BKN018 24 22     87%   25 1014.2        
Sep 20 18:15 SSE 18 16.09 Partly Cloudy SCT013 SCT021 24 22     88%   25 1013.9        
Sep 20 17:55 SSE 19 16.09 Clear   25 22     86%   25 1013.55        
Sep 20 17:35 SE 17 16.09 Clear   24 22     89%   25 1013.88        
Sep 20 17:15 SE 20 16.09 Clear   24 22     89%   24 1013.88        
Sep 20 16:55 SE 18 16.09 Clear   24 22     89%   24 1014.2        
Sep 20 16:35 SSE 19 16.09 Cloudy BKN011 BKN021 OVC040 24 22     90%   24 1014.56        
Sep 20 16:15 SSE 20 16.09 Cloudy BKN011 OVC019 24 22     91%   24 1014.56        
Sep 20 15:55 SSE 18 16.09 Cloudy BKN009 OVC017 23 22     95%   24 1014.6     0  
Sep 20 15:35 SSE 20 16.09 Cloudy OVC009 23 22     94%   24 1014.56        
Sep 20 15:15 SSE 20 16.09 Cloudy OVC009 23 22     93%   24 1014.9        
Sep 20 14:55 SSE 19 16.09 Cloudy OVC007 23 22     95%   24 1014.9   0    
Sep 20 14:35 SSE 22 8.05 Light Rain and Fog/Mist OVC007 22 22     96%   23 1015.24   0    
Sep 20 14:15 SSE 20 11.27 Light Rain and Fog/Mist OVC007 22 22     96%   23 1015.24        
Sep 20 13:55 SSE 19 16.09 Cloudy OVC007 22 22     96%   23 1015.58   0    
Sep 20 13:35 SSE 20 11.27 Light Drizzle and Fog/Mist OVC007 22 22     96%   23 1015.58   0    
Sep 20 13:15 SSE 19 4.02 Light Rain and Fog/Mist OVC005 22 22     97%   23 1015.92   0    
Sep 20 12:55 SSE 20 5.63 Light Rain and Fog/Mist   22 21     96%   23 1016.26        
Notice The following observation data may not be complete
Sep 20 12:40     Clear            %     1016.26        
Sep 20 12:15 SSE 19 8.05 Light Rain and Fog/Mist OVC007 22 21     96%   23 1016.26   0    
Sep 20 11:55 SSE 19 8.05 Light Rain and Fog/Mist OVC005 22 21     97%   22 1016.59        
Sep 20 11:35 SSE 15 4.83 Light Rain and Fog/Mist BKN005 OVC009 22 21     97%   22 1016.59        
Sep 20 11:15 SSE 19 6.44 Fog/Mist OVC007 21 21     96%   22 1016.93        
Sep 20 10:55 SSE 17 11.27 Cloudy OVC007 21 21     96%   22 1016.6   0    
Sep 20 10:35 SSE 17 16.09 Cloudy BKN010 OVC014 21 21     96%   22 1016.59   0    
Sep 20 10:15 SSE 20 16.09 Cloudy BKN010 OVC016 21 20     95%   22 1016.59        
Sep 20 09:55 SSE 22 16.09 Cloudy OVC008 21 20     95%   22 1016.6        
Sep 20 09:35 SSE 20 11.27 Light Rain BKN008 OVC012 22 21     95%   22 1016.26        
Sep 20 09:15 SSE 22 8.05 Light Rain and Fog/Mist OVC014 22 21     92%   23 1016.26        
Sep 20 08:55 SSE 18 16.09 Cloudy OVC016 23 20     83%   23 1016.3        
Sep 20 08:35 SSE 17 16.09 Cloudy OVC021 23 20     83%   23 1016.3        
Sep 20 08:15 SE 17 16.09 Cloudy OVC025 23 20     84%   23 1016.3        
Sep 20 07:55 SE 17 16.09 Cloudy OVC027 23 20     85%   23 1015.9        
Sep 20 07:35 SE 17 16.09 Cloudy OVC027 23 20     85%   23 1015.9        
Sep 20 07:15 SE 17 16.09 Mostly Cloudy BKN027 22 20     87%   23 1015.6        
Sep 20 06:55 SE 17 16.09 Partly Cloudy SCT027 22 20     87%   23 1015.24        
Sep 20 06:35 SE 17 16.09 Clear CLR 22 20     88%   23 1014.9        
Sep 20 06:15 SE 21 16.09 Clear CLR 23 20     87%   23 1014.6        
Sep 20 05:55 SE 13 16.09 Clear CLR 22 20     92%   22 1014.9        
Sep 20 05:35 ESE 15 16.09 Clear CLR 22 20     92%   22 1014.9        
Sep 20 05:15 ESE 15 16.09 Clear CLR 22 20     91%   23 1014.9        
Sep 20 04:55 E 15 16.09 Clear CLR 22 21     91%   23 1014.56        
Sep 20 04:35 E 15 16.09 Clear CLR 22 21     92%   23 1014.9        
Sep 20 04:15 E 13 16.09 Clear CLR 22 20     91%   23 1014.9        
Sep 20 03:55 E 13 16.09 Clear CLR 22 20     88%   23 1014.9        
Sep 20 03:35 E 15 16.09 Clear CLR 23 20     86%   23 1015.24        
Sep 20 03:15 ESE 11 16.09 Clear CLR 23 20     85%   24 1015.2        
Sep 20 02:55 ESE 11 16.09 Partly Cloudy SCT110 23 20     84%   24 1015.58        
Sep 20 02:35 ESE 9 16.09 Partly Cloudy SCT110 23 20     84%   24 1015.58        
Sep 20 02:15 SE 13 16.09 Clear CLR 23 20     84%   24 1015.58        
Sep 20 01:55 SE 13 16.09 Clear CLR 23 20     84%   23 1015.58        
Sep 20 01:35 SE 11 16.09 Clear CLR 23 20     83%   24 1015.58        
Sep 20 01:15 SE 11 16.09 Clear CLR 23 20     83%   24 1015.58        
Sep 20 00:55 SE 11 16.09 Clear CLR 23 20     84%   24 1015.24        
Sep 20 00:35 SE 11 16.09 Clear CLR 24 20     81%   24 1015.24        
Sep 20 00:15 SSE 11 16.09 Clear CLR 24 20     79%   24 1015.24        
Sep 19 23:55 SE 13 16.09 Clear CLR 24 20     79%   24 1014.9        
Sep 19 23:35 SSE 13 16.09 Clear CLR 24 20     80%   24 1015.24        
Sep 19 23:15 SSE 11 16.09 Clear CLR 23 20     83%   24 1015.24        
Sep 19 22:55 SE 9 16.09 Clear CLR 24 21     83%   24 1015.24        
Sep 19 22:35 SSE 11 11.27 Haze CLR 23 21     84%   24 1014.9        
Sep 19 22:15 SSE 9 16.09 Clear CLR 24 21     80%   25 1014.56        
Sep 19 21:55 SSE 13 16.09 Clear CLR 25 21     75%   26 1014.56        
Sep 19 21:35 SE 21 16.09 Clear CLR 26 21     72%   27 1014.2        
Sep 19 21:15 SE 19 16.09 Clear CLR 26 21     72%   27 1014.56        
Sep 19 20:55 SE 11 16.09 Clear CLR 25 21     78%   25 1014.22        
Sep 19 20:35 SE 11 16.09 Clear CLR 25 21     76%   26 1013.88        
Sep 19 20:15 SSE 11 16.09 Clear CLR 26 21     74%   26 1014.22        
Sep 19 19:55 SE 15 16.09 Partly Cloudy SCT060 27 21     71%   28 1013.88        
Sep 19 19:35 SE 9 16.09 Clear CLR 27 21     69%   29 1013.88        
Sep 19 19:15 SE 7 16.09 Clear CLR 28 21     67%   30 1013.55        
Sep 19 18:55 SE 9 16.09 Clear CLR 29 21     62%   31 1013.88        
Sep 19 18:35 SSE 13 16.09 Clear CLR 30 21     57%   32 1013.88        
Sep 19 18:15 S 17 16.09 Clear CLR 31 20     54%   33 1013.9        
Sep 19 17:55 SSE 13 16.09 Clear CLR 31 20     51%   33 1013.88        
Sep 19 17:35 SSE 17 16.09 Clear CLR 32 20     50%   34 1013.88        
Sep 19 17:10 SE 19 16.09 Partly Cloudy SCT050 32 20     49%   34 1013.88        
Sep 19 16:55 S 18 16.09 Partly Cloudy SCT050 SCT070 32 20     49%   35 1013.9        
Sep 19 16:35 SSE 15 16.09 Partly Cloudy SCT070 32 21     52%   35 1013.88        
Sep 19 16:15 SSE 17 16.09 Partly Cloudy SCT049 32 22     53%   36 1013.88        
Sep 19 15:55 SE 22 16.09 Partly Cloudy SCT049 33 22     52%   36 1014.22        
Sep 19 15:35 SE 22 16.09 Partly Cloudy SCT050 33 21     49%   35 1014.56        
Sep 19 15:15 SSE 21 16.09 Clear CLR 33 21     50%   36 1014.9        
Sep 19 14:55 SSE 24 16.09 Clear CLR 32 21     50%   35 1015.2        
Sep 19 14:35 SE 17 11.27 Haze SCT050 33 21     49%   36 1015.24        
Sep 19 14:15 S 17 16.09 Partly Cloudy SCT050 33 21     52%   36 1015.2        
Sep 19 13:55 SE 20 16.09 Partly Cloudy SCT050 33 22     52%   37 1015.58        
Sep 19 13:35 SE 26 16.09 Partly Cloudy SCT045 SCT050 32 21     52%   35 1015.58        
Sep 19 13:15 SSE 13 16.09 Partly Cloudy SCT045 SCT050 32 22     56%   35 1015.9        
Sep 19 12:55 ESE 18 16.09 Partly Cloudy SCT041 SCT049 32 23     58%   36 1015.9        
Sep 19 12:35 SE 17 16.09 Clear CLR 31 23     60%   35 1016.26        
Sep 19 12:15 SSE 18 16.09 Clear CLR 32 23     59%   36 1016.3        
Sep 19 11:55 SSE 15 11.27 Clear CLR 31 23     60%   35 1016.26        
Sep 19 11:35 SE 15 16.09 Clear CLR 31 23     62%   35 1016.59        
Sep 19 11:15 Calm 11.27 Clear CLR 30 23     65%   34 1016.59        
Sep 19 10:55 ESE 7 16.09 Clear CLR 29 23     68%   33 1016.59        
Sep 19 10:35 S 7 16.09 Clear CLR 29 23     70%   32 1016.59        
Sep 19 10:15 SSW 5 16.09 Clear CLR 28 22     72%   31 1016.6        
Sep 19 09:55 SSE 6 16.09 Clear CLR 27 22     73%   30 1016.59        
Sep 19 09:35 S 5 16.09 Clear CLR 27 22     77%   29 1016.3        
Sep 19 09:15 SSE 7 16.09 Clear CLR 26 22     80%   27 1015.92        
Sep 19 08:55 SSE 9 16.09 Clear CLR 25 22     83%   26 1015.92        
Sep 19 08:35 SSE 7 16.09 Clear CLR 24 22     88%   25 1015.92        
Sep 19 08:15 Calm 4.02 Fog/Mist CLR 23 21     90%   24 1015.9        
Sep 19 07:55 ESE 5 16.09 Clear CLR 22 21     93%   22 1015.6        
Sep 19 07:35 Calm 16.09 Clear CLR 21 20     95%     1015.58        
Sep 19 07:15 SE 5 16.09 Clear CLR 21 20     96%     1015.2        
Sep 19 06:55 SSE 6 16.09 Clear CLR 21 20     96%     1015.24        
Sep 19 06:35 Calm   Clear   21 20     96%     1014.9        
Sep 19 06:15 Calm 16.09 Clear CLR 21 20     93%     1014.9        
Sep 19 05:55 Calm 16.09 Clear CLR 21 20     95%     1014.9        
Sep 19 05:35 S 8 16.09 Clear CLR 21 20     93%     1014.9        
Sep 19 05:15 SSE 11 16.09 Clear CLR 21 20     93%     1014.9        
Sep 19 04:55 S 7 16.09 Clear CLR 21 20     93%   22 1014.9        
Sep 19 04:35 S 9 16.09 Clear CLR 21 20     93%     1014.56        
Sep 19 04:15 S 9 16.09 Clear CLR 21 20     92%   22 1014.6        
Sep 19 03:55 S 7 16.09 Clear CLR 21 20     93%   22 1014.56        
Sep 19 03:35 S 9 16.09 Clear CLR 22 20     90%   22 1014.6        
Sep 19 03:15 SSE 8 16.09 Clear CLR 22 20     87%   23 1014.6        
Sep 19 02:55 Calm 16.09 Clear CLR 22 21     91%   23 1014.56        
Sep 19 02:35 Calm 16.09 Clear CLR 22 21     93%   23 1014.56        
Sep 19 02:15 Calm 16.09 Clear CLR 22 20     92%   22 1014.9        
Sep 19 01:55 Calm 16.09 Clear CLR 22 21     92%   23 1014.6        
Sep 19 01:35 Calm 16.09 Clear CLR 22 21     92%   23 1014.6        
Sep 19 01:15 Calm 16.09 Clear CLR 22 21     90%   23 1014.9        
Sep 19 00:55 Calm 16.09 Clear CLR 22 21     90%   23 1014.56        
Sep 19 00:35 Calm 16.09 Clear CLR 24 21     84%   24 1014.9        
Sep 19 00:15 Calm 16.09 Clear CLR 24 21     83%   25 1014.9        
Sep 18 23:55 Calm 16.09 Clear CLR 24 21     83%   25 1014.9        
Sep 18 23:35 Calm 16.09 Clear CLR 23 21     88%   23 1014.9        
Sep 18 23:15 Calm 16.09 Clear CLR 24 21     85%   24 1014.9        
Sep 18 22:55 E 6 16.09 Clear CLR 24 21     85%   24 1015.24        
Sep 18 22:35 Calm 16.09 Clear CLR 23 21     87%   24 1015.2        
Sep 18 22:15 Calm 16.09 Clear CLR 24 21     83%   24 1014.9        
Sep 18 21:55 Calm 16.09 Clear CLR 24 21     82%   25 1014.9        
Sep 18 21:35 Calm 16.09 Clear CLR 24 21     82%   25 1014.9        
Sep 18 21:15 Calm 16.09 Clear CLR 24 21     83%   25 1014.6        
Sep 18 20:55 Calm 16.09 Clear CLR 24 21     83%   25 1014.56        
Sep 18 20:35 Calm 16.09 Clear CLR 25 21     79%   26 1014.6        
Sep 18 19:55 ESE 8 16.09 Clear CLR 28 21     66%   29 1014.2        
Sep 18 19:35 SE 8 16.09 Clear CLR 28 21     66%   30 1013.9        
Sep 18 19:15 SE 8 16.09 Clear CLR 29 21     61%   31 1013.9        
Sep 18 18:55 Calm 16.09 Clear CLR 30 21     61%   32 1013.88        
Sep 18 18:35 S 9 16.09 Clear CLR 31 21     55%   33 1013.88        
Sep 18 18:15 SSE 13 16.09 Clear CLR 31 20     52%   34 1013.9        
Sep 18 17:55 SSE 15 16.09 Clear CLR 32 20     50%   34 1013.88        
Sep 18 17:35 SSE 22 16.09 Clear CLR 32 20     50%   35 1013.55        
Sep 18 17:15 S 15 16.09 Clear CLR 33 20     47%   35 1013.6        
Sep 18 16:55 SSE 18 16.09 Clear CLR 33 20     47%   35 1013.6        
Sep 18 16:35 SSE 24 16.09 Clear CLR 33 20     46%   35 1013.55        
Sep 18 16:15 SSE 18 16.09 Clear CLR 33 21     48%   36 1013.9        
Sep 18 15:55 S 22 16.09 Clear CLR 33 20     46%   35 1014.22        
Sep 18 15:35 SSE 24 16.09 Partly Cloudy SCT050 33 20     46%   36 1014.22        
Sep 18 14:55 S 20 16.09 Partly Cloudy SCT050 33 21     49%   36 1014.56        
Sep 18 14:35 S 26 16.09 Partly Cloudy SCT050 33 21     48%   36 1014.9        
Sep 18 13:55 S 22 16.09 Partly Cloudy SCT050 33 22     52%   36 1015.24        
Sep 18 13:35 S 19 16.09 Partly Cloudy SCT049 33 22     52%   37 1015.58        
May 15 13:35 WSW 17 16.09 Mostly Cloudy BKN034 BKN039 BKN060 27 20     69%   28 1015.2        
May 15 04:15 SE 22 16.09 Clear CLR 17 16     93%     1011.5        
May 14 22:35   8.05 Thunderstorms and Haze BKN050 BKN060 BKN120 23 17     66%   24 1013.2        
May 14 11:55 SSW 33 16.09 Clear and Windy CLR 30 21     61%   32 1013.2        
May 14 11:15 S 39 16.09 Clear and Windy CLR 29 21     63%   31 1013.2        
May 14 10:55 SSW 33 16.09 Clear and Windy CLR 27 20     66%   29 1013.6        
May 14 08:55 S 21 16.09 Clear CLR 23 20     80%   24 1013.9        
May 14 06:35 S 15 16.09 Clear CLR 21 19     84%   22 1012.9        
Notice The following observation data may not be complete
May 14 00:55   16.09 Clear CLR          %              
May 13 19:55 S 22 16.09 Clear CLR 27 17     55%   28 1012.2        
May 13 08:55 S 26 16.09 Clear CLR 24 20     78%   25 1015.2        
May 13 06:35 S 11 16.09 Clear CLR 19 18     93%     1014.6        
May 13 02:15 SSE 9 16.09 Clear CLR 19 18     90%     1014.2        
May 13 00:35 S 5 16.09 Clear CLR 20 18     86%     1014.9        
May 12 21:15 S 15 16.09 Mostly Cloudy BKN041 25 19     70%   25 1012.9        
May 12 16:15 S 33 16.09 Clear and Windy   29 21     62%   31 1011.9        
May 12 04:35 SSE 17 16.09 Clear CLR 21 17     78%     1010.2        
May 12 01:55 S 22 16.09 Clear CLR 23 17     72%   23 1009.2        
May 11 14:15 S 35 16.09 Clear and Windy CLR 28 18     53%   29 1008.1        
May 11 09:35 SSW 37 16.09 Clear and Windy CLR 23 16     66%   23 1009.2        
Jun 12 08:15 S 28 16.09 Clear CLR 23 20     83%   24 1013.2        
Jun 12 07:12 SSE 17 16.09 Clear CLR 22 18     78%   22 1012.87        
Jun 12 05:55 S 17 16.09 Clear CLR 21 17     78%     1012.2        
Jun 12 05:12 S 19 16.09 Clear CLR 22 17     73%   22 1011.85        
Jun 12 02:12 SSE 17 16.09 Clear CLR 22 18     78%   22 1011.85        
Jun 12 01:52 SSE 17 16.09 Clear CLR 22 18     78%   22 1012.19        
Notice The following observation data may not be complete
Jun 12 00:15   16.09 Clear CLR          %              
Notice The following observation data may not be complete
Jun 11 23:15   16.09 Clear CLR          %              
Notice The following observation data may not be complete
Jun 11 22:47   16.09 Clear CLR          %              
Notice The following observation data may not be complete
Jun 11 21:42   16.09 Clear CLR          %              
Jun 11 21:07 SSE 22 16.09 Clear CLR 26 18     61%   26 1010.5        
Jun 11 19:27 SSE 24 16.09 Clear CLR 28 19     58%   29 1010.16        
Notice The following observation data may not be complete
Jun 11 18:42   16.09 Clear CLR          %              
Jun 11 18:12 SSE 33 16.09 Clear and Windy CLR 29 19     55%   30 1010.16        
Jun 11 17:27 SSE 31 16.09 Clear and Windy CLR 30 19     52%   31 1010.5        
Jun 11 17:12 SSE 43 16.09 Clear and Breezy CLR 30 19     52%   31 1010.5        
Jun 11 16:32 S 39 16.09 Clear and Windy CLR 30 19     52%   31 1010.5        
Jun 11 15:17 SSE 39 16.09 Partly Cloudy and Windy SCT043 31 19     49%   32 1011.18        
Notice The following observation data may not be complete
Jun 11 15:15   16.09 Partly Cloudy SCT043          %              
Jun 11 15:12 SSE 43 16.09 Clear and Breezy   31 19     49%   32 1011.18        
Jun 11 14:52 S 35 16.09 Clear and Windy CLR 31 19     49%   32 1011.18        
Jun 11 12:42 S 31 16.09 Clear and Windy CLR 30 18     49%   31 1011.51        
Notice The following observation data may not be complete
Jun 11 11:47   16.09 Clear CLR          %              
Jun 11 11:32 S 37 16.09 Clear and Windy CLR 29 18     52%   30 1011.51        
Jun 11 10:42 S 31 16.09 Clear and Windy CLR 28 18     55%   29 1011.18        
Jun 11 10:07 S 33 16.09 Clear and Windy CLR 27 18     58%   28 1011.51        
Jun 11 08:02 S 30 16.09 Clear CLR 23 17     69%   23 1011.51        
Jun 11 07:12 SSE 28 16.09 Clear CLR 22 17     73%   22 1011.51        
Jun 11 07:07 SSE 26 16.09 Clear CLR 22 17     73%   22 1011.18        
Jun 11 06:52 SSE 26 16.09 Clear CLR 22 17     73%   22 1011.18        
Jun 11 05:12 SSE 20 16.09 Clear CLR 22 17     73%   22 1010.84        
Jun 11 04:32 S 22 16.09 Clear CLR 22 17     73%   22 1010.84        
Jun 11 02:42 S 26 16.09 Clear   23 17     69%   23 1010.5        
Jun 11 02:32 S 24 16.09 Clear CLR 23 17     69%   23 1010.84        
Jun 11 01:15 S 32 16.09 Clear and Windy CLR 23 17     69%   23 1010.5        
Jun 11 00:55 S 26 16.09 Clear CLR 23 17     69%   23 1010.8        
Jun 11 00:15 S 26 16.09 Clear CLR 23 17     69%   23 1010.8        
Jun 10 22:22 SSE 22 16.09 Clear CLR 25 18     65%   25 1010.16        
Jun 10 22:07 S 28 16.09 Clear   25 18     65%   25 1009.82        
Jun 10 21:12 SSE 22 16.09 Clear CLR 26 18     61%   26 1009.14        
Jun 10 18:35 S 28 16.09 Clear CLR 28 18     55%   29 1008.1        
Jun 10 18:27 SSE 35 16.09 Partly Cloudy and Windy SCT040 29 19     55%   30 1008.13        
Jun 10 18:17 SSE 39 16.09 Clear and Windy   29 19     55%   30 1008.13        
Jun 10 17:02 SSE 37 16.09 Partly Cloudy and Windy SCT040 29 19     55%   30 1008.13        
Jun 10 13:22 SSE 37 16.09 Mostly Cloudy and Windy BKN036 28 18     55%   29 1010.16        
Jun 10 13:12 S 28 16.09 Mostly Cloudy BKN036 28 18     55%   29 1010.5        
Jun 10 11:07 S 35 16.09 Clear and Windy CLR 27 18     58%   28 1010.5        
Jun 10 09:42 S 37 16.09 Clear and Windy CLR 24 17     65%   24 1011.18        
Notice The following observation data may not be complete
Jun 10 09:15   16.09 Clear CLR          %              
Notice The following observation data may not be complete
Jun 10 07:42   16.09 Clear CLR          %              
Jun 10 06:55 S 21 16.09 Clear CLR 20 16     78%     1010.8        
Jun 10 02:57 SSE 11 16.09 Clear CLR 18 16     88%     1009.82        
Jun 10 01:42 SSE 11 16.09 Clear CLR 19 15     78%     1010.5        
Jun 10 01:32 SSE 11 16.09 Clear CLR 19 15     78%     1010.5        
Jun 10 01:17 SSE 13 16.09 Clear CLR 19 15     78%     1010.5        
Notice The following observation data may not be complete
Jun 10 00:47   16.09 Clear CLR          %              
Notice The following observation data may not be complete
Jun 09 21:35 SSE 13 16.09 Clear CLR   15      %     1010.5        
Notice The following observation data may not be complete
Jun 09 20:47   16.09 Clear CLR          %              
Jun 09 20:12 SSE 15 16.09 Clear CLR 24 16     61%   24 1010.5        
Jun 09 19:07 SSE 19 16.09 Clear CLR 27 14     45%   27 1010.5        
Notice The following observation data may not be complete
Jun 09 18:47   16.09 Clear CLR          %              
Jun 09 17:26 SSE 22 16.09 Clear CLR 28 14     42%   28 1010.84        
Jun 09 16:52 SSE 24 16.09 Clear CLR 28 14     42%   28 1011.18        
Jun 09 16:22 SSE 22 16.09 Partly Cloudy SCT050 28 14     42%   28 1011.51        
Notice The following observation data may not be complete
Jun 09 16:15   16.09 Partly Cloudy SCT050          %              
Jun 09 15:15 SSE 22 16.09 Clear CLR 28 14     42%   28 1011.9        
Jun 09 15:02 SSE 26 16.09 Clear CLR 28 14     42%   28 1011.85        
Jun 09 14:52 S 20 16.09 Partly Cloudy SCT050 28 14     42%   28 1011.85        
Notice The following observation data may not be complete
Jun 09 13:47   16.09 Partly Cloudy SCT050          %              
Notice The following observation data may not be complete
Jun 09 08:55   16.09 Clear CLR          %              
Jun 09 07:15 Calm 16.09 Clear CLR 16 14     88%     1013.6        
Notice The following observation data may not be complete
Jun 09 04:57   16.09 Clear CLR          %              
Jun 09 02:07 Calm 16.09 Clear CLR 16 13     82%     1012.53        
Jun 09 01:07 Calm 16.09 Clear CLR 17 14     83%     1013.21        
Jun 08 23:42 Calm 16.09 Clear CLR 18 14     77%     1013.55        
Notice The following observation data may not be complete
Jun 08 22:42   16.09 Clear CLR          %              
Jun 08 19:32 ESE 9 16.09 Clear   26 11     39%   26 1012.87        
Jun 08 19:17 ESE 9 16.09 Clear CLR 26 10     37%   26 1013.21        
Jun 08 19:02 SSE 6 16.09 Clear CLR 26 9     34%   26 1013.21        
Jun 08 18:52 SSE 9 16.09 Clear CLR 27 10     34%   27 1013.21        
Jun 08 15:02 SSE 7 16.09 Clear CLR 27 7     28%   26 1015.58        
Jun 08 14:17 SSW 9 16.09 Clear CLR 27 8     30%   27 1015.92        
Jun 08 12:27 S 9 16.09 Clear CLR 25 8     34%   24 1017.27        
Jun 08 11:52 SSE 9 16.09 Clear CLR 25 8     34%   24 1017.61        
Notice The following observation data may not be complete
Jun 08 10:57   16.09 Clear CLR          %              
Jun 08 08:55 ENE 5 16.09 Clear CLR 20 14     68%     1018.3        
Jun 08 08:42 Calm 16.09 Clear CLR 20 15     73%     1018.29        
Jun 08 08:27 Calm 16.09 Clear   19 14     73%     1018.29        
Jun 08 07:55 Calm 16.09 Clear CLR 17 13     77%     1018.3        
Jun 08 06:57 Calm 16.09 Clear CLR 13 12     94%     1017.95        
Jun 07 21:27 ENE 6 16.09 Clear CLR 21 12     56%     1016.93        
Jun 07 21:17 ENE 6 16.09 Clear CLR 22 12     53%   22 1016.93        
Jun 07 21:12 ENE 6 16.09 Clear CLR 22 12     53%   22 1016.93        
Jun 07 18:07 ENE 15 16.09 Clear CLR 26 9     34%   26 1016.93        
Jun 07 17:07 E 11 16.09 Clear CLR 27 8     30%   27 1017.27        
Notice The following observation data may not be complete
Jun 07 15:42   16.09 Clear CLR          %              
Notice The following observation data may not be complete
Jun 07 14:42   16.09 Clear CLR          %              
Jun 07 13:37 ENE 7 16.09 Clear CLR 26 7     30%   25 1018.29        
Jun 07 13:35 E 8 16.09 Clear CLR 25 6     30%   24 1018.3        
Jun 07 12:02 NE 15 16.09 Clear CLR 25 8     34%   24 1018.96        
Jun 07 11:22 NE 13 16.09 Clear CLR 25 8     34%   24 1018.96        
Jun 07 10:47 NNE 17 16.09 Clear CLR 24 8     36%   23 1018.96        
Jun 07 09:35 ENE 13 16.09 Clear CLR 22 10     46%   21 1019        
Jun 07 09:02 ENE 13 16.09 Clear CLR 21 11     53%     1018.63        
Jun 06 15:15 NNE 18 16.09 Clear CLR 29 13     37%   28 1013.9        
Jun 06 14:12 NNE 26 16.09 Clear CLR 29 14     40%   29 1014.22        
Jun 06 13:57 N 20 16.09 Clear CLR 29 13     37%   28 1014.56        
Notice The following observation data may not be complete
Jun 06 12:42   16.09 Clear CLR          %              
Jun 06 12:37 NNE 20 16.09 Clear CLR 29 14     40%   29 1014.56        
Jun 06 11:55 NNE 15 16.09 Clear CLR 27 15     48%   27 1014.9        
Jun 06 11:32 NE 15 16.09 Clear CLR 27 17     54%   28 1014.56        
Jun 06 09:02 NNE 11 16.09 Clear CLR 23 16     65%   23 1014.22        
Jun 06 08:02 N 9 16.09 Clear CLR 21 16     73%     1013.88        
Jun 06 07:42 N 6 16.09 Clear CLR 21 16     73%     1013.55        
Jun 06 07:35 N 8 16.09 Clear CLR 20 16     78%     1013.9        
Jun 06 06:55 N 8 16.09 Clear CLR 18 16     88%     1013.2        
Jun 06 05:55 N 9 16.09 Clear CLR 17 16     94%     1012.9        
Notice The following observation data may not be complete
Jun 06 04:52   16.09 Clear CLR          %              
Notice The following observation data may not be complete
Jun 06 02:57   16.09 Clear CLR          %              
Jun 06 02:55 Calm 16.09 Clear CLR 20 17     83%     1012.2        
Jun 06 00:55 Calm 16.09 Clear CLR 20 18     88%     1011.9        
Jun 05 22:42 W 6 16.09 Clear CLR 23 19     78%   23 1011.51        
Jun 05 22:37 Calm 16.09 Clear   23 19     78%   23 1011.51        
Jun 05 21:55 Calm 16.09 Clear   23 19     78%   23 1011.2        
Jun 05 19:37 E 9 16.09 Clear CLR 29 17     48%   29 1010.16        
Jun 05 18:22 ENE 19 16.09 Clear CLR 30 16     43%   30 1009.48        
Jun 05 17:22 NE 15 16.09 Clear CLR 31 16     40%   31 1009.14        
Notice The following observation data may not be complete
Jun 05 14:15   16.09 Clear CLR          %